This is the latest recevied weather packets stored in our database for station/object N0QWM. If no packets are shown the sender has not sent any weather packets the latest 1 day(s).
| Time | Temp. | Humidity | Pressure | Rain* | Wind** | Luminosity | Snow |
|---|---|---|---|---|---|---|---|
| 1778028620 | 22.78° C | 67% | 1016.8 hPa | 0 mm | 0 m/s | 0 W/m² | - |
| 1778028317 | 23.33° C | 66% | 1016.5 hPa | 0 mm | 0 m/s | 0 W/m² | - |
| 1778028014 | 23.33° C | 66% | 1016.7 hPa | 0 mm | 0 m/s | 0 W/m² | - |
| 1778027710 | 23.33° C | 65% | 1016.8 hPa | 0 mm | 0 m/s | 0 W/m² | - |
| 1778027406 | 23.89° C | 65% | 1016.7 hPa | 0 mm | 0.45 m/s, 106° | 0 W/m² | - |
| 1778027102 | 23.89° C | 65% | 1016.5 hPa | 0 mm | 0 m/s | 2 W/m² | - |
| 1778026798 | 23.89° C | 64% | 1016.6 hPa | 0 mm | 0 m/s | 4 W/m² | - |
| 1778026495 | 23.89° C | 64% | 1016.8 hPa | 0 mm | 0 m/s | 8 W/m² | - |
| 1778026192 | 23.89° C | 64% | 1016.8 hPa | 0 mm | 0 m/s | 10 W/m² | - |
| 1778025889 | 23.89° C | 63% | 1016.9 hPa | 0 mm | 0 m/s | 8 W/m² | - |
| 1778025586 | 23.89° C | 63% | 1017.3 hPa | 0 mm | 0 m/s | 10 W/m² | - |
| 1778025285 | 24.44° C | 63% | 1017.1 hPa | 0 mm | 0.45 m/s, 278° | 10 W/m² | - |
| 1778024981 | 24.44° C | 63% | 1017.1 hPa | 0 mm | 0.45 m/s, 45° | 14 W/m² | - |
| 1778024679 | 24.44° C | 64% | 1016.8 hPa | 0 mm | 0 m/s | 16 W/m² | - |
| 1778024375 | 24.44° C | 63% | 1016.7 hPa | 0 mm | 0 m/s | 21 W/m² | - |
| 1778024073 | 24.44° C | 62% | 1017 hPa | 0 mm | 0 m/s | 20 W/m² | - |
| 1778023770 | 24.44° C | 62% | 1017.1 hPa | 0 mm | 0.45 m/s, 276° | 22 W/m² | - |
| 1778023468 | 24.44° C | 62% | 1017.1 hPa | 0 mm | 0 m/s | 32 W/m² | - |
| 1778023164 | 25° C | 61% | 1017.1 hPa | 0 mm | 0 m/s | 42 W/m² | - |
| 1778022862 | 25° C | 61% | 1017.2 hPa | 0 mm | 0 m/s | 48 W/m² | - |
| 1778022560 | 25° C | 61% | 1017.4 hPa | 0 mm | 0 m/s | 55 W/m² | - |
| 1778022262 | 24.44° C | 61% | 1017.2 hPa | 0 mm | 0 m/s | 52 W/m² | - |
| 1778021954 | 24.44° C | 60% | 1017.3 hPa | 0 mm | 1.34 m/s, 280° | 55 W/m² | - |
| 1778021651 | 24.44° C | 60% | 1017.4 hPa | 0 mm | 0.45 m/s, 247° | 49 W/m² | - |
| 1778021346 | 24.44° C | 60% | 1017.5 hPa | 0 mm | 0.89 m/s, 251° | 55 W/m² | - |
* Rain latest hour (hover to see other rain measurements)
** Current wind speed in m/s (hover to see current wind gust speed)